| time (UTC) | temp F | wind direction | speed MPH | gust MPH | rain 1hr in | rain 24hr in | rain mn in | humidity % | barometer mb |
| 20260505011511 | 66 | 43 | 15.0 | 0.0 | 0.00 | 0.00 | 0.00 | 34 | 999.9 |
| 20260505010010 | 66 | 26 | 17.0 | 0.0 | 0.00 | 0.00 | 0.00 | 34 | 999.8 |
| 20260505004515 | 67 | 48 | 13.0 | 0.0 | 0.00 | 0.00 | 0.00 | 35 | 1000.4 |
| 20260505003009 | 68 | 29 | 15.0 | 0.0 | 0.00 | 0.00 | 0.00 | 33 | 1000.5 |
| 20260505001508 | 70 | 5 | 9.0 | 0.0 | 0.00 | 0.00 | 0.00 | 29 | 1000.3 |
| 20260505000008 | 71 | 46 | 14.0 | 0.0 | 0.00 | 0.00 | 0.00 | 29 | 1000.0 |
| 20260504234510 | 72 | 32 | 15.0 | 0.0 | 0.00 | 0.00 | 0.00 | 29 | 999.2 |
| 20260504233007 | 73 | 42 | 16.0 | 0.0 | 0.00 | 0.00 | 0.00 | 29 | 998.5 |
| 20260504231506 | 74 | 52 | 16.0 | 0.0 | 0.00 | 0.00 | 0.00 | 28 | 997.9 |
| 20260504230006 | 74 | 43 | 18.0 | 0.0 | 0.00 | 0.00 | 0.00 | 27 | 997.4 |
| 20260504224507 | 76 | 61 | 13.0 | 0.0 | 0.00 | 0.00 | 0.00 | 26 | 997.2 |
| 20260504223005 | 79 | 355 | 9.0 | 0.0 | 0.00 | 0.00 | 0.00 | 20 | 996.9 |
| 20260504221503 | 79 | 346 | 8.0 | 0.0 | 0.00 | 0.00 | 0.00 | 15 | 996.8 |
| 20260504214502 | 80 | 345 | 7.0 | 0.0 | 0.00 | 0.00 | 0.00 | 15 | 997.0 |
| 20260504213002 | 80 | 36 | 5.0 | 0.0 | 0.00 | 0.00 | 0.00 | 15 | 997.1 |
| 20260504211558 | 81 | 9 | 5.0 | 0.0 | 0.00 | 0.00 | 0.00 | 15 | 997.4 |
| 20260504210104 | 81 | 351 | 5.0 | 0.0 | 0.00 | 0.00 | 0.00 | 15 | 997.5 |
| 20260504204602 | 80 | 324 | 7.0 | 0.0 | 0.00 | 0.00 | 0.00 | 15 | 997.9 |
| 20260504203056 | 79 | 42 | 4.0 | 0.0 | 0.00 | 0.00 | 0.00 | 16 | 998.0 |
| 20260504201548 | 79 | 174 | 5.0 | 0.0 | 0.00 | 0.00 | 0.00 | 14 | 998.2 |
| 20260504200047 | 79 | 132 | 4.0 | 0.0 | 0.00 | 0.00 | 0.00 | 15 | 998.4 |
| 20260504194547 | 78 | 211 | 8.0 | 0.0 | 0.00 | 0.00 | 0.00 | 15 | 998.5 |
| 20260504193058 | 78 | 240 | 8.0 | 0.0 | 0.00 | 0.00 | 0.00 | 15 | 998.6 |
| 20260504191543 | 80 | 267 | 3.0 | 0.0 | 0.00 | 0.00 | 0.00 | 15 | 998.8 |
| 20260504190042 | 78 | 63 | 7.0 | 0.0 | 0.00 | 0.00 | 0.00 | 16 | 999.1 |
| 20260504184539 | 78 | 25 | 6.0 | 0.0 | 0.00 | 0.00 | 0.00 | 17 | 999.2 |
| 20260504183041 | 77 | 94 | 5.0 | 0.0 | 0.00 | 0.00 | 0.00 | 17 | 999.4 |
| 20260504181535 | 77 | 82 | 5.0 | 0.0 | 0.00 | 0.00 | 0.00 | 18 | 999.7 |
| 20260504180030 | 75 | 61 | 5.0 | 0.0 | 0.00 | 0.00 | 0.00 | 20 | 999.8 |
| 20260504174527 | 75 | 71 | 7.0 | 0.0 | 0.00 | 0.00 | 0.00 | 20 | 1000.3 |
| 20260504173025 | 75 | 42 | 6.0 | 0.0 | 0.00 | 0.00 | 0.00 | 20 | 1000.5 |
| 20260504171523 | 74 | 59 | 8.0 | 0.0 | 0.00 | 0.00 | 0.00 | 18 | 1000.8 |
| 20260504081505 | 48 | 209 | 1.0 | 0.0 | 0.00 | 0.00 | 0.00 | 57 | 1001.8 |
| 20260504044539 | 56 | 110 | 10.0 | 0.0 | 0.00 | 0.00 | 0.00 | 43 | 1003.3 |
| 20260504043043 | 57 | 113 | 9.0 | 0.0 | 0.00 | 0.00 | 0.00 | 41 | 1003.6 |
| 20260504041536 | 58 | 115 | 7.0 | 0.0 | 0.00 | 0.00 | 0.00 | 40 | 1003.7 |
| 20260504040035 | 58 | 94 | 4.0 | 0.0 | 0.00 | 0.00 | 0.00 | 39 | 1003.8 |
| 20260504034539 | 59 | 74 | 2.0 | 0.0 | 0.00 | 0.00 | 0.00 | 38 | 1003.8 |
| 20260504033039 | 60 | 72 | 1.0 | 0.0 | 0.00 | 0.00 | 0.00 | 37 | 1004.0 |
| 20260504031534 | 61 | 77 | 4.0 | 0.0 | 0.00 | 0.00 | 0.00 | 35 | 1003.9 |
| 20260504030034 | 62 | 71 | 4.0 | 0.0 | 0.00 | 0.00 | 0.00 | 34 | 1003.7 |
| 20260504024533 | 63 | 66 | 3.0 | 0.0 | 0.00 | 0.00 | 0.00 | 33 | 1003.7 |
| 20260504023033 | 64 | 70 | 3.0 | 0.0 | 0.00 | 0.00 | 0.00 | 33 | 1003.7 |
| 20260504020040 | 68 | 58 | 5.0 | 0.0 | 0.00 | 0.00 | 0.00 | 29 | 1003.6 |
| 20260504014537 | 69 | 59 | 5.0 | 0.0 | 0.00 | 0.00 | 0.00 | 28 | 1003.5 |
| 20260504013031 | 71 | 41 | 5.0 | 0.0 | 0.00 | 0.00 | 0.00 | 26 | 1003.4 |
| 20260504011533 | 72 | 49 | 5.0 | 0.0 | 0.00 | 0.00 | 0.00 | 25 | 1003.5 |